Time,TemperatureF,DewpointF,PressureIn,WindDirection,WindDirectionDegrees,WindSpeedMPH,WindSpeedGustMPH,Humidity,HourlyPrecipIn,Conditions,Clouds,dailyrainin,SolarRadiationWatts/m^2,SoftwareType,DateUTC
2013-02-25 00:01:00,44.0,42.0,-100.00,SSW,199,5.0,9.0,93,0.00,,,0.00,0.000000,,2013-02-25 08:01:00,
2013-02-25 00:11:00,44.0,42.0,-100.00,SSW,199,5.0,9.0,93,0.00,,,0.00,0.000000,,2013-02-25 08:11:00,
2013-02-25 00:32:00,45.0,43.0,-100.00,SSW,202,6.0,12.0,94,0.01,,,0.01,0.000000,,2013-02-25 08:32:00,
2013-02-25 00:42:00,45.0,43.0,-100.00,SSW,202,6.0,12.0,94,0.01,,,0.01,0.000000,,2013-02-25 08:42:00,
2013-02-25 00:52:00,45.0,43.0,-100.00,SSW,202,6.0,12.0,94,0.01,,,0.01,0.000000,,2013-02-25 08:52:00,
2013-02-25 01:01:00,45.0,43.0,-100.00,SSW,202,6.0,12.0,94,0.01,,,0.01,0.000000,,2013-02-25 09:01:00,
2013-02-25 01:12:00,45.0,43.0,-100.00,SSW,202,6.0,12.0,94,0.01,,,0.01,0.000000,,2013-02-25 09:12:00,
2013-02-25 01:32:00,45.0,44.0,-100.00,SSW,204,7.0,12.0,95,0.07,,,0.08,0.000000,,2013-02-25 09:32:00,
2013-02-25 01:42:00,45.0,44.0,-100.00,SSW,204,7.0,12.0,95,0.07,,,0.08,0.000000,,2013-02-25 09:42:00,
2013-02-25 01:52:00,45.0,44.0,-100.00,SSW,204,7.0,12.0,95,0.07,,,0.08,0.000000,,2013-02-25 09:52:00,
2013-02-25 02:01:00,45.0,44.0,-100.00,SSW,204,7.0,12.0,95,0.07,,,0.08,0.000000,,2013-02-25 10:01:00,
2013-02-25 02:11:00,45.0,44.0,-100.00,SSW,204,7.0,12.0,95,0.07,,,0.08,0.000000,,2013-02-25 10:11:00,
2013-02-25 02:32:00,45.0,44.0,-100.00,WNW,286,4.0,13.0,97,0.20,,,0.28,0.000000,,2013-02-25 10:32:00,
2013-02-25 02:42:00,45.0,44.0,-100.00,WNW,286,4.0,13.0,97,0.20,,,0.28,0.000000,,2013-02-25 10:42:00,
2013-02-25 02:52:00,45.0,44.0,-100.00,WNW,286,4.0,13.0,97,0.20,,,0.28,0.000000,,2013-02-25 10:52:00,
2013-02-25 03:01:00,45.0,44.0,-100.00,WNW,286,4.0,13.0,97,0.20,,,0.28,0.000000,,2013-02-25 11:01:00,
2013-02-25 03:11:00,45.0,44.0,-100.00,WNW,286,4.0,13.0,97,0.20,,,0.28,0.000000,,2013-02-25 11:11:00,
2013-02-25 03:32:00,43.0,41.0,-100.00,NW,306,3.0,7.0,94,0.03,,,0.31,0.000000,,2013-02-25 11:32:00,
2013-02-25 03:42:00,43.0,41.0,-100.00,NW,306,3.0,7.0,94,0.03,,,0.31,0.000000,,2013-02-25 11:42:00,
2013-02-25 03:52:00,43.0,41.0,-100.00,NW,306,3.0,7.0,94,0.03,,,0.31,0.000000,,2013-02-25 11:52:00,
2013-02-25 04:01:00,43.0,41.0,-100.00,NW,306,3.0,7.0,94,0.03,,,0.31,0.000000,,2013-02-25 12:01:00,
2013-02-25 04:11:00,43.0,41.0,-100.00,NW,306,3.0,7.0,94,0.03,,,0.31,0.000000,,2013-02-25 12:11:00,
2013-02-25 04:32:00,42.0,39.0,-100.00,NW,308,3.0,8.0,90,0.01,,,0.32,0.000000,,2013-02-25 12:32:00,
2013-02-25 04:42:00,42.0,39.0,-100.00,NW,308,3.0,8.0,90,0.01,,,0.32,0.000000,,2013-02-25 12:42:00,
2013-02-25 04:55:00,42.0,39.0,-100.00,NW,308,3.0,8.0,90,0.01,,,0.32,0.000000,,2013-02-25 12:55:00,
2013-02-25 05:01:00,42.0,39.0,-100.00,NW,308,3.0,8.0,90,0.01,,,0.32,0.000000,,2013-02-25 13:01:00,
2013-02-25 05:11:00,42.0,39.0,-100.00,NW,308,3.0,8.0,90,0.01,,,0.32,0.000000,,2013-02-25 13:11:00,
2013-02-25 05:13:00,42.0,40.0,-100.00,WNW,299,2.0,5.0,91,0.00,,,0.32,0.000000,,2013-02-25 13:13:00,
2013-02-25 05:32:00,42.0,40.0,-100.00,WNW,299,2.0,5.0,91,0.00,,,0.32,0.000000,,2013-02-25 13:32:00,
2013-02-25 05:42:00,42.0,40.0,-100.00,WNW,299,2.0,5.0,91,0.00,,,0.32,0.000000,,2013-02-25 13:42:00,
2013-02-25 05:52:00,42.0,40.0,-100.00,WNW,299,2.0,5.0,91,0.00,,,0.32,0.000000,,2013-02-25 13:52:00,
2013-02-25 06:02:00,42.0,40.0,-100.00,WNW,299,2.0,5.0,91,0.00,,,0.32,0.000000,,2013-02-25 14:02:00,
2013-02-25 06:32:00,41.0,39.0,-100.00,SW,224,2.0,5.0,92,0.02,,,0.34,0.000000,,2013-02-25 14:32:00,
2013-02-25 06:42:00,41.0,39.0,-100.00,SW,224,2.0,5.0,92,0.02,,,0.34,0.000000,,2013-02-25 14:42:00,
2013-02-25 06:52:00,41.0,39.0,-100.00,SW,224,2.0,5.0,92,0.02,,,0.34,0.000000,,2013-02-25 14:52:00,
2013-02-25 07:02:00,41.0,39.0,-100.00,SW,224,2.0,5.0,92,0.02,,,0.34,0.000000,,2013-02-25 15:02:00,
2013-02-25 07:11:00,41.0,39.0,-100.00,SW,224,2.0,5.0,92,0.02,,,0.34,0.000000,,2013-02-25 15:11:00,
2013-02-25 07:32:00,40.0,37.0,-100.00,West,278,3.0,7.0,90,0.05,,,0.39,0.000000,,2013-02-25 15:32:00,
2013-02-25 07:42:00,40.0,37.0,-100.00,West,278,3.0,7.0,90,0.05,,,0.39,0.000000,,2013-02-25 15:42:00,
2013-02-25 07:52:00,40.0,37.0,-100.00,West,278,3.0,7.0,90,0.05,,,0.39,0.000000,,2013-02-25 15:52:00,
2013-02-25 08:01:00,40.0,37.0,-100.00,West,278,3.0,7.0,90,0.05,,,0.39,0.000000,,2013-02-25 16:01:00,
2013-02-25 08:11:00,40.0,37.0,-100.00,West,278,3.0,7.0,90,0.05,,,0.39,0.000000,,2013-02-25 16:11:00,
2013-02-25 08:32:00,41.0,37.0,-100.00,WNW,303,2.0,4.0,87,0.00,,,0.39,41.000000,,2013-02-25 16:32:00,
2013-02-25 08:42:00,41.0,37.0,-100.00,WNW,303,2.0,4.0,87,0.00,,,0.39,41.000000,,2013-02-25 16:42:00,
2013-02-25 08:52:00,41.0,37.0,-100.00,WNW,303,2.0,4.0,87,0.00,,,0.39,41.000000,,2013-02-25 16:52:00,
2013-02-25 09:01:00,41.0,37.0,-100.00,WNW,303,2.0,4.0,87,0.00,,,0.39,41.000000,,2013-02-25 17:01:00,
2013-02-25 09:11:00,41.0,37.0,-100.00,WNW,303,2.0,4.0,87,0.00,,,0.39,41.000000,,2013-02-25 17:11:00,
2013-02-25 09:32:00,42.0,38.0,-100.00,NW,325,2.0,6.0,87,0.00,,,0.39,144.000000,,2013-02-25 17:32:00,
2013-02-25 09:42:00,42.0,38.0,-100.00,NW,325,2.0,6.0,87,0.00,,,0.39,144.000000,,2013-02-25 17:42:00,
2013-02-25 09:52:00,42.0,38.0,-100.00,NW,325,2.0,6.0,87,0.00,,,0.39,144.000000,,2013-02-25 17:52:00,
2013-02-25 10:01:00,42.0,38.0,-100.00,NW,325,2.0,6.0,87,0.00,,,0.39,144.000000,,2013-02-25 18:01:00,
2013-02-25 10:12:00,42.0,38.0,-100.00,NW,325,2.0,6.0,87,0.00,,,0.39,144.000000,,2013-02-25 18:12:00,
2013-02-25 10:33:00,47.0,41.0,-100.00,WSW,238,2.0,7.0,79,0.00,,,0.39,431.000000,,2013-02-25 18:33:00,
2013-02-25 10:42:00,47.0,41.0,-100.00,WSW,238,2.0,7.0,79,0.00,,,0.39,431.000000,,2013-02-25 18:42:00,
2013-02-25 10:52:00,47.0,41.0,-100.00,WSW,238,2.0,7.0,79,0.00,,,0.39,431.000000,,2013-02-25 18:52:00,
2013-02-25 11:01:00,47.0,41.0,-100.00,WSW,238,2.0,7.0,79,0.00,,,0.39,431.000000,,2013-02-25 19:01:00,
2013-02-25 11:11:00,47.0,41.0,-100.00,WSW,238,2.0,7.0,79,0.00,,,0.39,431.000000,,2013-02-25 19:11:00,
2013-02-25 11:42:00,45.0,39.0,-100.00,NW,317,4.0,7.0,78,0.01,,,0.40,420.000000,,2013-02-25 19:42:00,
2013-02-25 11:52:00,45.0,39.0,-100.00,NW,317,4.0,7.0,78,0.01,,,0.40,420.000000,,2013-02-25 19:52:00,
2013-02-25 12:01:00,45.0,39.0,-100.00,NW,317,4.0,7.0,78,0.01,,,0.40,420.000000,,2013-02-25 20:01:00,
2013-02-25 12:11:00,45.0,39.0,-100.00,NW,317,4.0,7.0,78,0.01,,,0.40,420.000000,,2013-02-25 20:11:00,
2013-02-25 12:32:00,47.0,40.0,-100.00,WNW,302,2.0,7.0,76,0.06,,,0.46,310.000000,,2013-02-25 20:32:00,
2013-02-25 12:42:00,47.0,40.0,-100.00,WNW,302,2.0,7.0,76,0.06,,,0.46,310.000000,,2013-02-25 20:42:00,
2013-02-25 12:52:00,47.0,40.0,-100.00,WNW,302,2.0,7.0,76,0.06,,,0.46,310.000000,,2013-02-25 20:52:00,
2013-02-25 13:01:00,47.0,40.0,-100.00,WNW,302,2.0,7.0,76,0.06,,,0.46,310.000000,,2013-02-25 21:01:00,
2013-02-25 13:11:00,47.0,40.0,-100.00,WNW,302,2.0,7.0,76,0.06,,,0.46,310.000000,,2013-02-25 21:11:00,
2013-02-25 13:32:00,47.0,39.0,-100.00,WNW,287,4.0,7.0,74,0.00,,,0.46,599.000000,,2013-02-25 21:32:00,
2013-02-25 13:42:00,47.0,39.0,-100.00,WNW,287,4.0,7.0,74,0.00,,,0.46,599.000000,,2013-02-25 21:42:00,
2013-02-25 13:52:00,47.0,39.0,-100.00,WNW,287,4.0,7.0,74,0.00,,,0.46,599.000000,,2013-02-25 21:52:00,
2013-02-25 14:01:00,47.0,39.0,-100.00,WNW,287,4.0,7.0,74,0.00,,,0.46,599.000000,,2013-02-25 22:01:00,
2013-02-25 14:11:00,47.0,39.0,-100.00,WNW,287,4.0,7.0,74,0.00,,,0.46,599.000000,,2013-02-25 22:11:00,
2013-02-25 14:32:00,46.0,38.0,-100.00,West,274,3.0,7.0,74,0.00,,,0.46,403.000000,,2013-02-25 22:32:00,
2013-02-25 14:42:00,46.0,38.0,-100.00,West,274,3.0,7.0,74,0.00,,,0.46,403.000000,,2013-02-25 22:42:00,
2013-02-25 14:52:00,46.0,38.0,-100.00,West,274,3.0,7.0,74,0.00,,,0.46,403.000000,,2013-02-25 22:52:00,
2013-02-25 15:01:00,46.0,38.0,-100.00,West,274,3.0,7.0,74,0.00,,,0.46,403.000000,,2013-02-25 23:01:00,
2013-02-25 15:11:00,46.0,38.0,-100.00,West,274,3.0,7.0,74,0.00,,,0.46,403.000000,,2013-02-25 23:11:00,
2013-02-25 15:32:00,45.0,38.0,-100.00,WNW,291,3.0,6.0,75,0.00,,,0.46,318.000000,,2013-02-25 23:32:00,
2013-02-25 15:42:00,45.0,38.0,-100.00,WNW,291,3.0,6.0,75,0.00,,,0.46,318.000000,,2013-02-25 23:42:00,
2013-02-25 15:52:00,45.0,38.0,-100.00,WNW,291,3.0,6.0,75,0.00,,,0.46,318.000000,,2013-02-25 23:52:00,
2013-02-25 16:01:00,45.0,38.0,-100.00,WNW,291,3.0,6.0,75,0.00,,,0.46,318.000000,,2013-02-26 00:01:00,
2013-02-25 16:11:00,45.0,38.0,-100.00,WNW,291,3.0,6.0,75,0.00,,,0.46,318.000000,,2013-02-26 00:11:00,
2013-02-25 16:32:00,45.0,37.0,-100.00,WNW,291,3.0,5.0,74,0.00,,,0.46,168.000000,,2013-02-26 00:32:00,
2013-02-25 16:42:00,45.0,37.0,-100.00,WNW,291,3.0,5.0,74,0.00,,,0.46,168.000000,,2013-02-26 00:42:00,
2013-02-25 16:52:00,45.0,37.0,-100.00,WNW,291,3.0,5.0,74,0.00,,,0.46,168.000000,,2013-02-26 00:52:00,
2013-02-25 17:01:00,45.0,37.0,-100.00,WNW,291,3.0,5.0,74,0.00,,,0.46,168.000000,,2013-02-26 01:01:00,
2013-02-25 17:11:00,45.0,37.0,-100.00,WNW,291,3.0,5.0,74,0.00,,,0.46,168.000000,,2013-02-26 01:11:00,
2013-02-25 17:32:00,44.0,37.0,-100.00,NW,306,2.0,4.0,75,0.00,,,0.46,135.000000,,2013-02-26 01:32:00,
2013-02-25 17:42:00,44.0,37.0,-100.00,NW,306,2.0,4.0,75,0.00,,,0.46,135.000000,,2013-02-26 01:42:00,
2013-02-25 17:52:00,44.0,37.0,-100.00,NW,306,2.0,4.0,75,0.00,,,0.46,135.000000,,2013-02-26 01:52:00,
2013-02-25 18:01:00,44.0,37.0,-100.00,NW,306,2.0,4.0,75,0.00,,,0.46,135.000000,,2013-02-26 02:01:00,
2013-02-25 18:11:00,44.0,37.0,-100.00,NW,306,2.0,4.0,75,0.00,,,0.46,135.000000,,2013-02-26 02:11:00,
2013-02-25 18:32:00,41.0,36.0,-100.00,NNW,346,1.0,4.0,83,0.00,,,0.46,27.000000,,2013-02-26 02:32:00,
2013-02-25 18:42:00,41.0,36.0,-100.00,NNW,346,1.0,4.0,83,0.00,,,0.46,27.000000,,2013-02-26 02:42:00,
2013-02-25 18:52:00,41.0,36.0,-100.00,NNW,346,1.0,4.0,83,0.00,,,0.46,27.000000,,2013-02-26 02:52:00,
2013-02-25 19:01:00,41.0,36.0,-100.00,NNW,346,1.0,4.0,83,0.00,,,0.46,27.000000,,2013-02-26 03:01:00,
2013-02-25 19:11:00,41.0,36.0,-100.00,NNW,346,1.0,4.0,83,0.00,,,0.46,27.000000,,2013-02-26 03:11:00,
2013-02-25 19:32:00,40.0,38.0,-100.00,West,269,1.0,2.0,91,0.00,,,0.46,0.000000,,2013-02-26 03:32:00,
2013-02-25 19:42:00,40.0,38.0,-100.00,West,269,1.0,2.0,91,0.00,,,0.46,0.000000,,2013-02-26 03:42:00,
2013-02-25 19:52:00,40.0,38.0,-100.00,West,269,1.0,2.0,91,0.00,,,0.46,0.000000,,2013-02-26 03:52:00,
2013-02-25 20:01:00,40.0,38.0,-100.00,West,269,1.0,2.0,91,0.00,,,0.46,0.000000,,2013-02-26 04:01:00,
2013-02-25 20:11:00,40.0,38.0,-100.00,West,269,1.0,2.0,91,0.00,,,0.46,0.000000,,2013-02-26 04:11:00,
2013-02-25 20:42:00,39.0,36.0,-100.00,ENE,58,2.0,3.0,89,0.00,,,0.46,0.000000,,2013-02-26 04:42:00,
2013-02-25 20:52:00,39.0,36.0,-100.00,ENE,58,2.0,3.0,89,0.00,,,0.46,0.000000,,2013-02-26 04:52:00,
2013-02-25 21:01:00,39.0,36.0,-100.00,ENE,58,2.0,3.0,89,0.00,,,0.46,0.000000,,2013-02-26 05:01:00,
2013-02-25 21:11:00,39.0,36.0,-100.00,ENE,58,2.0,3.0,89,0.00,,,0.46,0.000000,,2013-02-26 05:11:00,
2013-02-25 21:32:00,37.0,35.0,-100.00,ENE,69,2.0,2.0,94,0.00,,,0.46,0.000000,,2013-02-26 05:32:00,
2013-02-25 21:43:00,37.0,35.0,-100.00,ENE,69,2.0,2.0,94,0.00,,,0.46,0.000000,,2013-02-26 05:43:00,
2013-02-25 21:52:00,37.0,35.0,-100.00,ENE,69,2.0,2.0,94,0.00,,,0.46,0.000000,,2013-02-26 05:52:00,
2013-02-25 22:01:00,37.0,35.0,-100.00,ENE,69,2.0,2.0,94,0.00,,,0.46,0.000000,,2013-02-26 06:01:00,
2013-02-25 22:11:00,37.0,35.0,-100.00,ENE,69,2.0,2.0,94,0.00,,,0.46,0.000000,,2013-02-26 06:11:00,
2013-02-25 22:32:00,37.0,35.0,-100.00,East,96,2.0,2.0,93,0.00,,,0.46,0.000000,,2013-02-26 06:32:00,
2013-02-25 22:42:00,37.0,35.0,-100.00,East,96,2.0,2.0,93,0.00,,,0.46,0.000000,,2013-02-26 06:42:00,
2013-02-25 22:52:00,37.0,35.0,-100.00,East,96,2.0,2.0,93,0.00,,,0.46,0.000000,,2013-02-26 06:52:00,
2013-02-25 23:01:00,37.0,35.0,-100.00,East,96,2.0,2.0,93,0.00,,,0.46,0.000000,,2013-02-26 07:01:00,
2013-02-25 23:11:00,37.0,35.0,-100.00,East,96,2.0,2.0,93,0.00,,,0.46,0.000000,,2013-02-26 07:11:00,
2013-02-25 23:32:00,36.0,35.0,-100.00,SE,129,2.0,4.0,95,0.00,,,0.46,0.000000,,2013-02-26 07:32:00,
2013-02-25 23:42:00,36.0,35.0,-100.00,SE,129,2.0,4.0,95,0.00,,,0.46,0.000000,,2013-02-26 07:42:00,
2013-02-25 23:52:00,36.0,35.0,-100.00,SE,129,2.0,4.0,95,0.00,,,0.46,0.000000,,2013-02-26 07:52:00,